sat.trackr.live / text

‹ back to catalog

COSMOS 2513

NORAD 41121 · 2015-075A

PAYLOAD ACTIVE UNKNOWN

§ Identity

Operator
Country
CIS
Launch date
2015-12-13
Launch site
TYMSC
Launch vehicle
Mass (kg)
RCS (m²)
3.36

Purposes: comms

External: N2YO · Heavens-Above · Gunter

§ Orbital elements

Epoch: 2026-05-24T21:16:46.928064Z

Period
1,436.09 min
Inclination
0.0730°
Eccentricity
0.0003240
Mean motion
1.00272225 rev/d
Perigee alt
35,772.8 km
Apogee alt
35,800.1 km
Semi-major
42,164.6 km
B*
0.0000e+0
RAAN
99.7041°
Arg perigee
319.5189°
Mean anomaly
222.7060°
Rev number
3,831

§ Raw data

COSMOS 25131 41121U 15075A   26144.88665426 -.00000141  00000+0  00000+0 0  99942 41121   0.0730  99.7041 0003240 319.5189 222.7060  1.00272225 38311

JSON: /api/v1/satellites/41121 · /tle

For live sub-satellite position, see the globe view (requires WebGL).

§ Visibility from observer

Set your observer location to see the next 7 days of passes ≥ 10°. The values pass through the URL so the page stays shareable.

No JS? Fill the form by hand. The geolocation button needs JavaScript.